Location: Trois-Rivi�res
(46.3500°N, 72.5500°W)
Time: 23:24:06
(UTC-05:00)

N. Korean satellite - Pass Details

Date: 13 October 2017
Orbit: 461 x 513 km, 97.2° (Epoch: 14 December)

Event Time Altitude Azimuth Distance (km) Brightness Sun altitude
Rises 19:50:08 0° 206° (SSW) 2,547 10.5 -18.6°
Reaches altitude 10° 19:52:51 10° 229° (SW) 1,661 9.8 -19.1°
Maximum altitude 19:55:05 16° 268° (W) 1,341 9.8 -19.4°
Drops below altitude 10° 19:57:18 10° 307° (NW) 1,652 10.2 -19.8°
Sets 20:00:01 0° 330° (NNW) 2,526 10.8 -20.3°
